Location: Unspecified
(0.0000°N, 0.0000°E)
Time: 17:32:07
(UTC+02:00)

AO-40 - Visible Passes

Search period start: 01 May 2016 00:00
Search period end: 11 May 2016 00:00
Orbit: 990 x 58830 km, 8.6° (Epoch: 28 April)

Date Brightness Start Highest point End Pass type
(mag) Time Alt. Az. Time Alt. Az. Time Alt. Az.
01 May ? 11:35:36 10° E 18:15:55 86° N 02:19:36 30° WSW visible
02 May ? 13:12:47 10° E 19:55:32 75° ESE 21:26:37 24° ESE visible
03 May ? 18:10:00 10° W 19:17:08 21° W 21:17:19 10° W visible
04 May ? 12:25:09 10° W 16:26:35 83° N 23:08:27 10° W visible
05 May ? 07:16:22 11° W 07:21:12 89° S 07:35:05 10° E visible
05 May ? 11:29:43 10° E 18:06:56 87° N 01:54:13 36° WSW visible
06 May ? 13:03:56 10° E 19:27:34 71° E 21:01:12 16° ESE visible
07 May ? 17:35:59 10° W 18:49:46 25° W 21:14:24 10° W visible
08 May ? 11:57:19 10° W 16:21:08 83° N 22:59:26 10° W visible
09 May ? 06:50:04 23° WSW 06:53:27 86° S 07:05:13 10° E visible
09 May ? 11:23:07 10° E 17:58:01 87° N 01:28:43 42° WSW visible
10 May ? 12:55:12 10° E 18:59:29 67° E 20:35:20 10° E visible
